Change the Weather History Date:

Wednesday, December 29, 2010

  Actual Average Record
Temperature  
Mean Temperature 48 °F 49 °F  
Max Temperature 59 °F 59 °F 78 °F (1984)
Min Temperature 37 °F 39 °F 10 °F (1894)
Degree Days  
Heating Degree Days 17 16  
Month to date heating degree days 512 433  
Since 1 July heating degree days 803 758  
Moisture  
Dew Point 50 °F    
Average Humidity 90    
Maximum Humidity 100    
Minimum Humidity 79    
Precipitation  
Precipitation 0.62 in 0.12 in 3.05 in (1927)
Month to date precipitation 1.09 5.86  
Year to date precipitation 36.75 55.66  
Snow  
Snow 0.00 in - 8.00 in (1901)
Month to date snowfall 0.0  
Since 1 July snowfall 0.0  
Snow Depth 0.00 in    
Sea Level Pressure  
Sea Level Pressure 29.91 in    
Wind  
Wind Speed 8 mph (SE)    
Max Wind Speed 15 mph    
Max Gust Speed 18 mph    
Visibility 9 miles    
Events Rain    
T = Trace of Precipitation, MM = Missing Value Source: NWS Daily Summary

Daily Weather History Graph

Daily Weather History Graph

Search for Another Location

Airport or City:

Trip Planner

Search our weather history database for the weather conditions in past years. The results will help you decide how hot, cold, wet, or windy it might be!

Date:

Astronomy

Dec. 29, 2010 Rise Set
Actual Time 7:08 AM CST 5:16 PM CST
Civil Twilight 6:41 AM CST 5:43 PM CST
Nautical Twilight 6:11 AM CST 6:13 PM CST
Astronomical Twilight 5:41 AM CST 6:43 PM CST
Moon 1:28 AM CST (12/29) 12:38 PM CST (12/29)
Length of Visible Light 11h 01m
Length of Day
10h 07m
Waning Crescent, 33% of the Moon is Illuminated
Dec 29
Waning Crescent
Jan 4
New
Jan 12
First Quarter
Jan 19
Full
Jan 26
Last Quarter

Hourly Weather History & Observations

Time (CST) Temp. Windchill Dew Point Humidity Pressure Visibility Wind Dir Wind Speed Gust Speed Precip Events Conditions
12:53 AM 39.0 °F 34.0 °F 34.0 °F 82% 30.13 in 10.0 mi SE 6.9 mph - N/A   Clear
1:53 AM 43.0 °F 36.8 °F 37.0 °F 80% 30.09 in 10.0 mi SE 11.5 mph - N/A   Clear
2:53 AM 43.0 °F 37.2 °F 37.9 °F 82% 30.09 in 10.0 mi SE 10.4 mph - N/A   Clear
3:53 AM 43.0 °F 37.2 °F 39.0 °F 86% 30.06 in 10.0 mi SE 10.4 mph - N/A   Clear
4:53 AM 44.1 °F 40.1 °F 39.9 °F 85% 30.04 in 10.0 mi SSE 6.9 mph - N/A   Partly Cloudy
5:53 AM 44.1 °F 39.0 °F 41.0 °F 89% 30.04 in 10.0 mi SE 9.2 mph - N/A   Partly Cloudy
6:53 AM 45.0 °F 40.1 °F 41.0 °F 86% 30.04 in 10.0 mi SE 9.2 mph - 0.00 in   Mostly Cloudy
7:53 AM 46.0 °F 41.0 °F 42.1 °F 86% 30.03 in 9.0 mi ESE 10.4 mph - N/A   Mostly Cloudy
8:53 AM 48.9 °F - 43.0 °F 80% 30.02 in 10.0 mi SE 12.7 mph - N/A   Mostly Cloudy
9:53 AM 50.0 °F - 44.1 °F 80% 30.01 in 10.0 mi SE 10.4 mph - 0.00 in Rain Light Rain
10:44 AM 50.0 °F - 46.4 °F 87% 29.97 in 6.0 mi ESE 6.9 mph - 0.06 in Rain Rain
10:53 AM 50.0 °F - 46.9 °F 89% 29.98 in 8.0 mi ESE 5.8 mph - 0.07 in Rain Light Rain
11:53 AM 51.8 °F - 50.0 °F 94% 29.91 in 9.0 mi ESE 4.6 mph - N/A Rain Light Rain
12:06 PM 53.6 °F - 50.0 °F 88% 29.90 in 10.0 mi Calm Calm - N/A Rain Light Rain
12:53 PM 54.0 °F - 51.1 °F 90% 29.88 in 9.0 mi Calm Calm - 0.01 in Rain Light Rain
1:41 PM 57.2 °F - 53.6 °F 88% 29.84 in 10.0 mi Variable 4.6 mph - 0.02 in Rain Light Rain
1:53 PM 57.9 °F - 55.0 °F 90% 29.84 in 10.0 mi SSE 6.9 mph - 0.02 in Rain Light Rain
2:10 PM 59.0 °F - 55.4 °F 88% 29.82 in 10.0 mi SSE 9.2 mph 17.3 mph 0.00 in Rain Light Rain
2:38 PM 59.0 °F - 55.4 °F 88% 29.82 in 10.0 mi South 10.4 mph - 0.01 in Rain Light Rain
2:53 PM 59.0 °F - 55.9 °F 90% 29.83 in 10.0 mi South 9.2 mph - 0.01 in Rain Light Rain
3:53 PM 59.0 °F - 57.0 °F 93% 29.85 in 4.0 mi South 6.9 mph - 0.07 in Rain Rain
4:19 PM 57.2 °F - 57.2 °F 100% 29.83 in 8.0 mi SSE 6.9 mph - 0.03 in Rain Light Rain
4:34 PM 57.2 °F - 55.4 °F 94% 29.83 in 9.0 mi SSE 8.1 mph - 0.03 in Rain Light Rain
4:53 PM 57.9 °F - 55.9 °F 93% 29.84 in 10.0 mi SSE 10.4 mph - 0.04 in Rain Light Rain
5:53 PM 57.0 °F - 55.0 °F 93% 29.83 in 10.0 mi ESE 8.1 mph - 0.07 in Rain Light Rain
6:53 PM 57.0 °F - 55.0 °F 93% 29.86 in 4.0 mi SE 3.5 mph - 0.13 in Rain Heavy Rain
7:53 PM 55.4 °F - 55.4 °F 100% 29.84 in 9.0 mi East 6.9 mph - N/A Rain Light Rain
8:00 PM 55.4 °F - 53.6 °F 94% 29.84 in 7.0 mi East 9.2 mph - N/A Rain Rain
8:38 PM 55.4 °F - 55.4 °F 100% 29.84 in 7.0 mi SSE 4.6 mph - 0.06 in Rain Light Rain
8:53 PM 55.9 °F - 55.0 °F 97% 29.86 in 9.0 mi ESE 5.8 mph - 0.07 in Rain Light Rain
9:06 PM 55.4 °F - 55.4 °F 100% 29.85 in 10.0 mi ESE 6.9 mph - 0.00 in Rain Light Rain
9:53 PM 55.9 °F - 55.0 °F 97% 29.84 in 10.0 mi ESE 10.4 mph - 0.02 in Rain Light Rain
10:53 PM 55.9 °F - 55.0 °F 97% 29.79 in 10.0 mi East 11.5 mph - 0.01 in   Scattered Clouds
11:53 PM 55.9 °F - 55.0 °F 97% 29.77 in 10.0 mi ESE 9.2 mph - N/A   Mostly Cloudy